Location: Borz?cin
(51.1714°N, 19.6030°E)
Time: 22:24:29
(UTC+00:00)

Cosmos 1000 Rocket - Pass Details

Date: 19 May 2025
Orbit: 954 x 990 km, 82.9° (Epoch: 16 June)

Event Time Altitude Azimuth Distance (km) Brightness Sun altitude
Exits shadow 23:08:01 31° 182° (S) 1,613 5.1 -18.5°
Maximum altitude 23:11:11 83° 98° (E) 972 4.4 -18.5°
Drops below altitude 10° 23:17:23 10° 11° (N) 2,713 8.1 -18.3°
Sets 23:19:55 0° 11° (N) 3,668 9.3 -18.3°
